TimeMST,TemperatureF,Dew PointF,Humidity,Sea Level PressureIn,VisibilityMPH,Wind Direction,Wind SpeedMPH,Gust SpeedMPH,PrecipitationIn,Events,Conditions,WindDirDegrees,DateUTC
12:53 AM,23.0,18.0,81,30.10,10.0,SE,8.1,-,N/A,,Clear,140,2011-12-20 07:53:00
1:53 AM,21.0,17.1,85,30.07,10.0,Variable,4.6,-,N/A,,Clear,0,2011-12-20 08:53:00
2:53 AM,19.4,15.8,86,29.95,10.0,NNE,4.6,-,N/A,,Clear,20,2011-12-20 09:53:00
3:53 AM,26.1,19.0,75,30.01,10.0,South,5.8,-,N/A,,Clear,190,2011-12-20 10:53:00
4:53 AM,17.1,14.0,88,30.05,10.0,SSE,4.6,-,N/A,,Clear,150,2011-12-20 11:53:00
5:53 AM,24.1,18.0,77,30.00,10.0,Calm,Calm,-,N/A,,Clear,0,2011-12-20 12:53:00
6:53 AM,24.1,17.1,75,29.97,10.0,SSW,3.5,-,N/A,,Clear,200,2011-12-20 13:53:00
7:53 AM,16.0,12.0,84,29.98,10.0,Calm,Calm,-,N/A,,Clear,0,2011-12-20 14:53:00
8:53 AM,33.1,18.0,54,29.91,10.0,Calm,Calm,-,N/A,,Clear,0,2011-12-20 15:53:00
9:53 AM,37.0,18.0,46,29.88,10.0,SW,11.5,-,N/A,,Clear,230,2011-12-20 16:53:00
10:53 AM,41.0,18.0,40,29.86,10.0,SW,10.4,-,N/A,,Clear,220,2011-12-20 17:53:00
11:53 AM,45.0,17.1,33,29.82,10.0,WSW,8.1,-,N/A,,Clear,240,2011-12-20 18:53:00
12:53 PM,48.0,16.0,28,29.77,10.0,West,6.9,-,N/A,,Clear,270,2011-12-20 19:53:00
1:53 PM,48.0,18.0,30,29.78,10.0,West,8.1,-,N/A,,Clear,260,2011-12-20 20:53:00
2:53 PM,45.0,19.9,37,29.79,10.0,WSW,5.8,-,N/A,,Clear,250,2011-12-20 21:53:00
3:53 PM,42.1,21.0,43,29.78,10.0,West,4.6,-,N/A,,Clear,280,2011-12-20 22:53:00
4:53 PM,35.1,21.0,57,29.83,10.0,West,11.5,-,N/A,,Clear,280,2011-12-20 23:53:00
5:53 PM,32.0,21.0,64,29.82,10.0,West,9.2,-,N/A,,Clear,260,2011-12-21 00:53:00
6:53 PM,30.9,21.0,67,29.83,10.0,West,10.4,-,N/A,,Clear,280,2011-12-21 01:53:00
7:53 PM,30.0,21.9,72,29.85,10.0,West,10.4,-,N/A,,Partly Cloudy,270,2011-12-21 02:53:00
8:53 PM,34.0,24.1,67,29.78,10.0,West,9.2,-,N/A,,Overcast,260,2011-12-21 03:53:00
9:53 PM,32.0,24.1,73,29.78,10.0,West,10.4,-,N/A,,Scattered Clouds,280,2011-12-21 04:53:00
10:53 PM,35.1,25.0,67,29.77,10.0,West,10.4,-,N/A,,Overcast,280,2011-12-21 05:53:00
11:53 PM,34.0,25.0,70,29.75,10.0,West,6.9,-,N/A,,Overcast,260,2011-12-21 06:53:00